GFSSE_con_sbcape_000.txt.gz
CAPE
623 664 810 985 1310 2535 2483 2540 3037 3037 2956 3001 2941 2522 3039 2962 2993 2997 3403 3724 3262 3364 2796 2358 2426 2529 2739 2759 2582 2378 2190 2084 2085 2072 2516 2032 1438 1080 1033 1110 945 713 1214
826 746 1496 1710 2176 2852 2828 2929 2938 2943 2819 3015 2942 2895 2895 2986 2399 2470 2819 3174 3138 2762 2264 2315 2375 2352 2630 2680 2563 2471 2462 2431 2284 2097 2116 1857 1622 1275 1539 1251 864 1277 1234
771 862 1123 2492 2776 2631 2868 2719 2675 2612 2809 3158 3133 3082 2977 2851 2681 2666 2970 2871 2806 2393 2310 2360 2364 2354 2309 2402 2484 2531 2555 2334 2051 2208 1962 1640 1388 1443 1745 1423 835 1216 1110
955 972 1255 2033 2449 2788 2877 3107 2989 2481 2676 3243 3229 3083 3139 2952 2838 2771 2419 2535 2555 2555 2377 2234 2315 2435 2229 2192 2202 2128 2094 2292 2356 1974 1779 1051 1030 1411 1233 1066 690 853 492
1262 1334 1755 2479 2831 2894 2855 3107 2782 2771 2968 2931 2989 3073 2966 2787 2838 2434 2363 2434 2395 2380 2413 2355 2327 2289 2197 2159 2131 2021 1904 1975 2025 1539 1278 1073 1291 1073 1405 1252 650 1151 596
1841 1885 1609 2306 2903 2992 3314 2772 2463 2489 3076 3304 3326 3023 2717 2352 2407 2430 2431 2460 2427 2365 2312 2324 2307 2187 2074 2132 2178 2016 1910 1905 1351 1680 1506 1156 1537 1500 1406 1278 548 1021 785
1672 2024 1933 2671 3089 3011 3276 2740 2806 2558 2541 3087 2889 2402 2312 2295 2403 2363 2249 2255 2347 2373 2310 2333 2352 2275 2224 2152 2145 2067 1907 1643 1745 1626 1549 1105 1606 1899 1286 1516 846 418 800
1660 1883 2117 2294 2837 3172 2798 2697 3287 3092 2774 3032 2816 2357 2314 2400 2418 2368 2301 2412 2405 2262 2174 2142 2157 2139 2263 2348 2231 2031 2030 1784 1539 1508 1625 1562 2143 1708 1413 977 1352 375 272
1514 1650 2002 2014 2404 2669 2685 2707 3065 3084 2697 2859 2622 2454 2510 2608 2569 2474 2462 2378 2279 2122 2087 2114 2173 2109 2169 2354 2304 2126 1819 1962 1879 1598 1512 1755 2369 1972 1460 1260 1307 602 711
1449 1588 1981 2074 1893 2008 1973 2619 2384 2579 2560 2346 2465 2569 2694 2672 2654 2643 2594 2491 2451 2285 2403 2492 2702 2215 2129 2019 1825 1807 1862 1791 1618 1729 1570 2003 2653 1861 1574 1548 981 1112 506
1370 1632 1885 2006 2096 2086 1966 2104 2372 2358 2285 2128 2234 2293 2340 1657 2182 2153 2096 2597 2413 2390 2477 2497 2532 2583 2444 2205 1848 1632 1550 1590 1618 1530 2197 1724 2127 1757 1825 1547 1237 1205 872
1480 1455 1477 1624 1966 2147 1812 2142 1947 1729 1486 1491 1633 2097 1944 2062 2265 2408 2568 2659 2606 2641 2630 2760 2405 2414 1850 1588 1796 1472 1392 1368 1418 1571 1775 2156 1842 1584 1910 1682 1656 825 1321
1386 1422 1526 1793 1984 1849 1763 1973 1897 1941 1835 1981 2351 2459 2285 2272 2315 2249 1912 2067 2050 2343 1779 2023 1833 1793 1281 1362 1365 1224 994 1248 1072 1474 1577 1902 2077 1592 1693 1673 1878 1471 684
1297 1393 1637 2007 2262 2228 2018 1876 1833 1779 1909 1849 1965 2301 2830 2349 2066 2020 1854 1826 1914 1710 1684 1700 1636 1690 1677 1300 1466 1398 1142 1112 1052 1288 1646 2104 2106 1627 1508 1881 1771 1305 1098
1339 1505 1632 2075 2271 2357 2448 1934 1770 1719 1693 1631 1783 1982 2249 2036 2008 1972 2147 2024 1656 1700 1945 2098 1908 1812 1738 1193 1154 1222 1036 982 1084 1247 1395 2314 2434 2065 1534 1872 1675 1365 876
1179 1316 1770 2115 2355 2460 2877 2490 2463 2089 1960 1886 1745 1785 2196 2372 2038 1866 2041 1783 1786 1693 2096 2046 2126 1958 1813 1564 1256 1209 1086 1019 1140 1295 1199 1613 2265 2589 2085 1660 1667 1576 1124
1717 1665 1854 2261 2294 2400 2424 2601 2568 2129 1856 1775 1712 1951 2158 2502 2271 2474 1934 1805 1967 2039 1688 1790 2017 1920 1838 1622 1488 1443 1333 1212 1228 1446 1549 1232 1490 2384 2630 2182 2477 2448 1999
2218 2498 2525 2454 2175 2574 2768 2878 2470 2191 1969 1657 1407 1370 1786 2212 2461 2722 1748 1751 1748 2006 1555 1561 2153 1731 1964 1549 1526 1401 1240 1108 1144 1301 1325 1228 1102 872 2101 2679 2776 2712 1985
2086 2460 2905 2818 2459 2236 2453 2469 2298 2185 2125 1992 1804 2090 2129 2540 2587 2802 2660 1574 2095 1581 1507 1328 1590 1677 2169 1939 1444 1222 1237 1154 1086 857 917 1015 1206 1111 908 2076 2430 2685 1868
2711 2936 2945 2758 2808 2863 2666 2840 2990 3081 3407 3351 2890 2248 2262 2417 2145 2348 1914 1937 2014 1658 1377 1421 1912 1662 1579 1476 1271 1007 941 963 938 863 796 870 1015 939 983 950 1912 1673 2524
2475 2674 2873 2973 2996 2877 2856 2722 2630 2588 2477 2464 2336 2318 2442 2360 2475 2654 2618 2226 2673 2493 2004 2053 2155 1688 1425 1320 1269 1200 982 905 955 932 763 787 813 753 814 910 1024 1205 1478
2535 2697 2938 3123 3240 3296 2906 2834 2647 2362 1841 1988 2358 2249 1954 1658 1697 1649 1710 1430 1454 1426 1686 1890 2270 1849 1200 1714 1232 1063 591 658 665 854 826 620 720 728 654 816 1036 1263 1181
2415 2847 2983 3181 3181 3442 3164 2306 1570 999 1430 825 853 672 1043 1213 1069 1128 1166 1250 1336 1354 1243 1450 1714 1549 1417 1048 1297 1227 494 490 354 491 882 712 716 696 708 657 744 1061 1372
2342 2742 3656 3851 3501 2460 1503 925 982 228 340 515 443 370 752 547 791 792 946 983 1248 1135 1183 1083 1178 1375 1465 1263 1466 1330 1138 694 595 392 631 651 750 679 759 680 568 818 1252
2755 3121 2895 2355 1731 1180 1053 597 182 217 63 179 155 201 394 381 477 534 754 724 956 912 825 819 998 1181 1204 1175 1256 1286 988 921 1277 1144 670 466 668 589 535 748 654 535 733
2275 1960 1288 1374 1136 901 432 358 385 312 169 54 89 183 46 86 161 283 309 392 553 598 631 718 819 1009 1415 1395 1354 1413 1427 1070 938 1169 1084 517 375 363 610 447 526 593 559

GFSSE_con_sbcape_003.txt.gz
CAPE
530 358 1033 1672 2104 2163 2445 2396 2779 2870 2911 2960 2901 2890 3062 2952 3160 3295 3308 3153 2909 2821 2476 2296 2406 2628 2647 2561 2471 2210 2101 1965 2014 2332 1899 1564 1175 971 1100 1078 884 552 1302
757 584 1269 1728 1990 2185 2530 2982 2959 2815 2881 2766 3004 2894 2829 2507 2476 3545 3520 2934 2718 2482 2354 2363 2375 2400 2712 2562 2392 2357 2270 2245 2162 1963 2056 1813 1403 1599 1710 1166 1470 1265 1240
650 712 889 2342 2129 2176 2570 2700 2541 2638 2494 2758 3184 2820 2607 1911 2028 2354 2413 2304 2455 2174 2266 2355 2342 2403 2514 2595 2511 2670 2338 2132 1984 1973 1618 1547 1537 1535 1731 1099 1198 1365 1137
622 854 1087 2596 2523 1988 2528 2586 2877 2783 2577 2748 3073 2785 2551 1880 2186 2453 2291 2473 2556 2400 2243 2307 2472 2404 2149 2191 2083 2099 1964 1985 2008 1539 1465 1361 1130 1535 1313 974 1520 1007 870
1036 1828 1807 2389 2565 2259 2405 2408 3064 3006 2424 2456 2888 2582 2221 2016 2085 2373 2390 2371 2411 2363 2373 2366 2289 2216 1995 1918 1956 1759 1790 1913 1944 1392 1549 1598 991 1523 1608 851 887 582 159
1411 1580 2094 2482 2630 2694 2603 2488 2385 2865 2507 2469 2401 2135 2194 2064 2250 2208 2290 2351 2392 2359 2335 2320 2214 2131 2021 2012 2035 1833 1922 1745 1410 1691 1628 1393 1528 1949 1544 1147 857 1042 423
1627 1512 1666 2973 3058 2970 2563 2482 2383 2902 2410 2642 2101 2120 2142 2363 2313 2214 2246 2275 2297 2256 2160 2123 2103 2045 1931 2043 1959 1874 1845 1741 1600 2202 1896 975 1942 2020 1327 1140 491 1251 808
1669 1621 1578 2403 3018 3155 2500 2657 2501 2456 2315 2337 2173 2162 2246 2362 2296 2232 2202 2348 2267 2054 1919 2010 2011 1922 1956 2014 2073 1989 1761 1932 1419 1638 2095 1657 2087 2005 1680 1146 693 331 481
1365 1832 1812 1689 1991 2609 2688 2843 2971 2842 2420 2206 2165 2205 2333 2535 2438 2391 2372 2311 2167 2081 1997 2020 2100 1971 2038 2051 2002 1790 1745 1950 1491 2020 1726 1694 2511 1938 1658 986 1103 500 220
1705 1803 2513 2046 1864 1963 1979 2209 2639 2677 2453 2237 2245 2320 2513 2532 2525 2449 2617 2482 2298 2150 2257 2444 2440 2383 1929 1884 1903 1751 1832 1947 1562 1698 1611 1816 2668 1899 1583 1449 1120 638 827
1627 1574 1668 1570 1711 2485 2082 2310 2611 2731 2437 2252 2223 2232 2192 1560 2283 2297 2525 2176 2362 2249 2193 2263 2450 2389 2394 2160 1910 1786 1744 1552 1438 2177 1800 1476 2590 1897 1548 1797 1115 1177 643
1331 1497 1644 1735 2063 2425 1684 2205 2030 1720 1554 1527 1493 2495 1767 2417 2957 2104 2291 2422 2426 2463 2545 2372 2603 2386 1993 1526 1935 2081 1713 1787 1701 1606 1969 1789 1821 1775 1996 1712 1560 1233 1191
1198 1164 1130 2026 1709 1682 2886 1853 1804 1692 1790 1732 2055 2793 2612 2367 2713 2339 1961 2817 2502 2362 1820 2357 2626 2208 1868 947 832 1158 1027 882 814 1461 1501 2367 1947 1770 1765 1673 1992 1251 1223
1268 1173 1298 1729 2076 1722 2120 1396 1867 1826 1306 1626 2067 2462 2296 1674 2791 2302 1942 2455 2064 1401 1546 1800 1796 1505 1248 1289 1045 1022 1116 965 916 1006 2268 2481 2257 1881 1423 2073 1969 1932 1100
1230 1269 1420 1950 2306 2311 2517 1427 1599 1735 1273 1346 1422 1776 1672 2725 2639 2091 2091 1657 1835 1297 1827 1966 2421 1873 1939 1356 1148 901 841 732 694 751 1005 2800 2667 2324 1541 2073 2311 2031 1418
1122 1244 1403 1816 2504 2324 2619 2580 2195 1234 1901 1859 1870 1874 2438 1627 2833 2239 2221 1805 2424 1806 1917 1789 2275 1840 1883 1425 1268 1027 1049 909 825 922 807 2127 2919 2778 2338 1697 2274 2248 1676
1063 1303 1975 2542 2876 2574 2609 2936 3055 1722 1272 1596 2106 2417 1372 2000 2501 2836 2182 1749 1766 1777 2134 1912 1802 2100 1658 1282 1187 1126 989 1304 1037 996 1002 947 2143 2860 2764 2424 2592 2796 2620
1524 2246 2234 1847 2337 2569 2610 2864 2653 2054 1818 2200 1285 1210 1409 1867 3068 2955 1614 1202 1656 1955 1777 1951 1671 1526 1510 1544 1357 1161 1193 1089 1042 1206 1116 1198 999 1344 2571 2883 2786 2861 2605
2077 2315 2532 2218 2114 2825 2866 2829 2660 3052 1916 1813 2535 2383 2046 2460 2148 2850 1878 1527 1852 1589 1358 1488 1502 1361 1627 1483 1276 1448 1277 954 769 782 1088 1083 1218 1044 1206 2519 2603 2652 2199
2032 2412 2471 2449 2601 2437 2812 2779 2702 3071 2346 2317 2369 2176 2908 2839 2443 3072 2894 2342 2598 2491 2439 1943 2134 1739 1555 1504 1169 1173 1336 945 847 722 668 733 799 947 1134 1464 2166 1961 2875
2218 2668 2785 2963 3422 3314 3177 3094 3571 2711 3061 2549 3054 2537 2265 2457 2284 2498 2651 2267 2630 2154 2419 2293 2048 2328 1896 1855 1668 1144 1165 1319 1011 803 745 670 736 658 909 1097 1877 1729 2424
2088 2387 2806 3002 3526 3441 3187 3230 3237 2746 1774 1444 1770 1978 2103 1513 1952 1580 1723 1550 2042 882 2208 1548 1950 1510 1473 1170 1132 1699 1086 952 1117 789 1055 860 790 624 636 1487 1616 2243 1823
2084 2655 2875 3153 3324 3700 3595 3351 2464 2056 1953 1029 697 676 991 866 645 999 1190 1193 1505 1489 479 1274 1288 1485 1313 1674 1302 1259 982 658 497 747 1580 1133 1505 802 705 925 1508 1772 2477
1682 2345 3003 3422 3762 2941 1998 1253 1265 576 188 589 230 150 492 282 464 585 686 762 967 1082 1169 1049 911 1094 1258 1139 1562 1502 1411 1183 1194 791 838 772 1853 1324 1338 923 878 1396 2226
1559 2092 2950 3257 2052 1430 948 545 170 135 0 0 0 84 457 933 383 368 591 715 963 794 1106 854 953 1261 1408 1274 1358 1557 1447 1655 1498 1517 983 917 814 697 787 1206 894 947 1582
1691 2229 2582 1938 1614 1072 524 372 250 160 121 28 111 121 40 6 71 286 269 352 543 541 549 600 677 774 1316 1554 1353 1550 1278 1185 1394 1738 1491 812 913 834 710 656 1087 1072 1070

GFSSE_con_sbcape_006.txt.gz
CAPE
234 573 1478 1778 1680 1858 2090 2294 2358 2469 2339 2391 2567 2792 2804 3014 3109 3105 3141 3217 3177 3159 2993 2679 2818 2681 2451 2375 2129 2040 1983 1967 2148 1826 1529 1187 1017 1101 1225 972 829 828 1285
324 556 2075 2319 1830 1865 1961 2106 2195 2469 2575 2826 2901 2848 2981 3239 3486 3299 3261 3029 2921 2897 2703 2594 2572 2581 2357 2211 2186 2159 2147 1969 1991 2012 1668 1220 1275 1586 1261 1109 1433 1101 986
407 522 1221 2512 2348 2101 2214 2250 2371 2313 2792 2919 2818 2589 2638 2781 3187 3086 3030 3061 2963 2659 2300 2256 2226 2295 2313 2242 2343 2404 1739 1780 1725 1558 1333 1450 1339 1623 1271 1132 1360 1245 905
447 517 856 2540 2611 2604 2345 2266 2435 2459 2580 2858 2763 2680 2785 2871 2908 2818 2761 2598 2550 2565 2200 2283 2193 2014 1890 1916 1791 1750 1694 1480 1332 1004 1076 899 955 1505 1008 1641 1155 867 1054
1362 1350 1859 2752 2678 2531 2577 2895 2957 2853 2931 2944 2855 2652 2618 2440 2015 2166 2141 2236 2323 2396 2280 2174 2048 1902 1803 1735 1577 1614 1577 1562 1389 919 1041 1137 1132 1259 904 623 687 247 573
1448 1248 2239 2712 2605 2799 2699 2769 2986 2880 2885 2893 2738 2699 2450 2291 2174 2100 2179 2217 2244 2278 2246 2189 2011 1863 1761 1653 1612 1551 1606 1432 700 387 879 1526 1393 1516 1052 683 1147 358 744
1280 1333 1923 3266 3294 3092 2987 3025 3088 2892 2743 2683 2513 2105 2510 2483 2085 2136 2205 2150 2095 2070 2006 1901 1811 1687 1576 1689 1751 1652 1472 1423 649 428 928 842 1446 2188 1546 796 1115 731 945
1226 1256 1530 2793 2716 2842 2875 2742 3076 2824 2664 2613 2510 2522 2573 2207 2056 1963 1984 2060 1963 1760 1739 1834 1805 1634 1581 1631 1572 1844 1875 1462 1034 1293 1119 1281 1636 2084 1547 581 733 957 1025
1472 1652 1830 1731 2294 2599 3128 2713 2867 2894 2624 2386 2435 2322 2220 2106 2052 2078 2074 1991 1703 1816 1821 1937 2104 1911 1950 1963 2122 2345 2120 1747 1555 1628 1046 1182 2340 2192 1224 1109 351 253 441
1553 1961 2316 2147 1961 2225 2278 3075 2740 2940 2657 2354 2039 1987 2038 2168 2186 2191 2107 2289 2027 1863 1965 2107 2347 2307 2380 2482 2520 2599 2276 1799 1487 1038 1224 751 2139 2032 1392 1187 814 581 149
1561 1576 1551 2027 2489 2748 2247 2002 2939 2485 2589 2185 2012 2095 2309 1736 1425 183 0 880 2174 2090 2021 2157 2575 2835 2718 2704 2826 2796 2106 1457 1560 1710 1136 1396 2532 2057 1493 1303 971 656 967
1546 1611 1689 1802 2142 2315 1553 2304 2576 2195 1974 2080 2009 2521 2213 2176 2186 1113 145 961 2193 2192 2451 2599 2558 2931 2119 1554 2090 2744 2049 1416 1824 1529 1196 1112 2105 2239 1467 1769 1654 1155 723
1632 1385 1429 2631 2782 2450 2077 2301 2475 2210 1931 2066 2993 2992 2923 2831 895 2389 1242 1512 2738 2971 2266 2938 2557 2345 1823 1685 1259 1114 1449 1338 800 1407 1539 1731 1822 2028 1900 1734 1685 1428 1290
1047 1538 1874 1767 2566 2812 1649 2101 2236 2207 2330 1313 2342 3252 3405 2650 2887 2678 2342 2406 2881 1995 2949 2599 2130 2616 2188 2099 1426 1269 967 814 756 1440 1600 2157 2461 2428 1637 1805 1884 1583 1145
1127 1265 2113 2568 2869 3229 2386 3270 1674 1705 1486 2006 2587 2508 2621 3105 2958 2722 2853 2634 2747 2718 2023 2360 2592 2376 2149 2038 1895 1815 1122 1106 1020 1131 1594 2532 2442 2596 2215 2210 1914 1985 1569
1168 1231 1773 2524 3421 2988 3378 3664 3700 1786 1724 2404 2563 1922 1923 2274 2848 2690 2340 2597 2807 2062 2923 2382 2851 2469 2249 2164 1813 1758 1548 1494 1461 1662 1492 1814 2149 2373 2426 2346 2408 2335 2128
1073 1437 2063 2322 2941 3360 3431 3774 3453 3051 1491 2415 2052 2385 2843 2873 3358 2758 2581 2351 2243 2635 2886 2725 2535 2234 2198 1807 1930 1286 1772 1592 1362 1656 1520 1690 1455 2294 2505 2413 2554 3066 2861
1321 2131 1912 1420 2576 3068 3483 3396 3121 2640 2476 2908 3114 2207 2614 2955 3033 2843 2537 2086 2170 2484 2111 2598 2415 1955 1989 1851 2030 2023 1806 1638 1388 1488 1598 1353 1637 1620 2290 2473 2517 2675 2951
2509 2657 2222 2361 2834 3274 3359 3581 3257 3255 3069 3128 2644 3155 2651 3056 2616 2649 2539 2626 2671 2047 1914 1849 1830 1795 1590 1277 1499 1590 1670 1724 987 764 1204 1253 1126 1306 1613 1961 1985 2048 2287
2200 2207 2835 2578 3572 3143 3721 3385 3217 3025 2728 3025 3252 2838 3122 3060 2934 2257 2229 2305 1937 2052 2034 1698 1591 1614 1652 1742 1471 1220 1224 1399 1192 814 581 896 1086 1038 992 1648 1642 1466 2456
2119 3423 2863 3155 4129 4307 3601 3059 3403 2957 3658 2943 3465 3163 3132 3097 2351 2429 2506 2493 2349 2012 2150 2163 2045 1786 1357 1767 1288 877 1212 1165 1261 1325 1067 749 618 897 910 1157 1852 1412 1633
2688 3372 3828 4332 4411 4232 4382 4214 3687 3395 3417 3278 2782 3342 2719 2168 2378 2731 2787 2044 1727 1646 1685 1726 1923 1395 1315 1174 892 555 672 708 965 966 1132 835 782 861 704 884 1242 1649 1558
2237 3063 3632 4331 4243 4007 4188 4413 3956 3395 3328 2525 2564 1686 1646 1253 1505 2114 2060 1927 1938 1875 1004 1297 1326 938 965 1327 984 596 526 414 457 750 1073 1060 845 708 773 841 1010 1056 1670
2262 2772 3791 4279 4650 4461 3824 2842 2878 1591 907 2015 1709 1626 1096 1294 1383 1261 1595 1757 1790 1474 1405 1308 922 989 1152 916 1013 1151 645 509 551 386 679 931 1094 907 1029 870 807 1116 1098
2007 2305 3482 4426 4190 3423 2774 1408 1503 1526 771 845 953 1127 1314 1427 1637 1185 1552 1706 1386 1251 1136 1120 1088 828 843 854 769 828 832 612 676 643 441 453 527 1118 716 610 256 318 1006
1637 2145 3276 3681 3281 2782 2097 1622 843 331 740 644 1178 921 838 919 949 1624 1114 1232 1358 1123 1028 773 1130 943 850 869 788 637 583 511 539 343 335 427 554 550 934 445 345 376 416

GFSSE_con_sbcape_009.txt.gz
CAPE
350 695 1399 1087 1684 2117 2162 1984 2548 2567 2423 2566 2587 2657 2715 2986 3182 3260 3357 3406 3398 3286 3400 2663 2568 2438 2242 2160 2181 2178 2016 2166 2059 1722 1266 1152 1251 1514 1020 923 1210 908 880
592 1355 2131 1994 1786 1808 2057 2435 2403 2552 2643 2653 2738 2973 3043 3090 3377 3319 3227 3280 3244 3309 2691 2551 2510 2375 2297 2320 2288 2171 2031 1942 1748 1525 1247 1216 1453 1363 1100 946 1149 802 860
727 1301 1401 2085 2167 2310 2440 2222 1990 2163 2640 2727 2787 3078 3189 3121 3151 3300 3233 3188 3037 2892 2244 2254 2334 2339 2210 2152 2166 1929 1530 1778 1187 1239 1116 1085 1413 1464 1275 1254 1166 813 1194
620 1206 1570 2113 2240 2175 2338 2239 2651 2516 2617 2802 2896 2942 3096 3151 3130 2940 2309 2343 2849 2562 2149 2192 2156 2047 2024 1890 1930 2158 2176 1539 1159 1288 718 994 985 1218 1325 1186 908 1134 987
597 1481 1795 2726 2572 2488 2438 2593 3038 2774 2994 2860 2940 3055 2905 2766 2356 2024 2169 2160 2217 2506 2147 2077 2060 2008 1955 1763 1870 1828 1933 1513 1314 1041 810 682 556 980 974 790 390 706 892
1005 1550 2676 3033 3014 2964 3051 3115 3254 3124 2938 2919 2834 2624 2562 2511 2111 2006 2048 2105 2177 2172 2140 2074 1978 1935 1870 1756 1774 1855 1879 1475 509 157 540 850 801 1109 604 815 599 554 1022
1206 1659 2150 2913 2941 2893 3132 3160 3108 2978 2878 2930 2703 2501 2692 2796 2173 2208 2069 1987 1905 1903 1850 1776 1728 1671 1728 1717 1771 1843 1695 1669 566 869 976 810 1128 1824 990 1256 645 1117 959
1216 1913 2246 3031 3181 3241 2814 2559 3158 2821 2638 2747 2723 2992 2801 2823 2577 2398 1924 1874 1768 1605 1617 1735 1832 1724 1704 1815 1968 2000 1988 1475 1410 1249 1244 992 1432 2224 1116 817 1049 865 1152
1146 1496 2077 2285 2345 2823 3066 2926 2704 2887 2671 2879 2864 2790 2759 2308 2044 2009 1958 1921 1639 1609 1743 1871 2380 2369 2398 2569 2522 2230 2267 1932 1443 1160 1337 1089 1973 2178 950 624 1126 1045 1066
1176 1417 1429 1809 2077 2411 2513 2873 2364 2759 2395 2784 2652 2310 2580 2154 1838 1616 1262 1836 2045 1939 1891 2177 2679 2643 3020 2944 2726 2175 1966 2087 1408 1056 720 572 1631 2270 1255 840 296 384 1030
1402 1303 1275 1175 1533 1784 2213 2473 3038 2639 2851 2681 2365 2488 2361 1565 173 170 933 800 1527 2305 2220 2455 2488 2262 2934 2359 2662 2244 2120 1533 1227 1297 827 466 1973 2352 1479 1338 786 456 473
1233 1424 1350 1383 1492 1528 1673 2050 2081 2043 2021 1813 1763 1678 1513 1163 778 942 713 619 1121 2522 2808 2922 2413 2567 2652 1666 1273 2199 1763 1761 1156 989 817 1659 2537 2269 1838 1524 969 745 1037
1133 1069 966 1325 1380 1617 1440 1521 1780 1679 1558 1600 1593 1561 1478 1434 881 1357 554 1204 1429 1945 1761 1955 2224 1869 1870 1542 1251 881 1279 1751 1059 1055 893 1896 2636 2542 1804 1840 1335 1071 822
1036 1098 1382 1758 1711 1453 1531 1625 1653 1521 1411 1339 1538 1773 1748 1470 1288 1427 1171 1273 1422 1355 1663 1177 940 1613 1424 1139 968 1030 509 347 647 1190 1375 2122 2356 2868 2004 1846 1716 1465 1246
1050 1431 1470 1559 1999 1398 1236 1809 1342 1483 1671 1306 1676 1762 1817 1608 1488 1243 1458 963 1437 1417 1049 1443 1473 1215 1403 1488 1238 1162 782 445 316 1277 1008 2179 2236 2338 2443 2082 1828 1831 1422
760 1453 1660 1620 2095 1917 2119 2036 2178 1837 972 1389 1685 1688 1866 1875 1697 1597 1207 1278 1603 1193 1583 1312 1301 1269 1165 1283 1395 1215 1082 747 367 629 1027 1452 2091 2323 2606 2249 2204 2211 1993
645 1639 1822 1942 2112 1827 1986 2199 2427 2112 1683 918 1310 1361 967 1022 1555 1479 1135 1308 1158 1192 1535 1570 1642 1592 1433 1361 1130 1091 1058 851 692 539 836 1202 1572 2409 2085 2266 2781 2652 2748
459 1062 1791 2195 2204 2014 2125 2410 2299 2109 1710 1747 1722 1400 1495 1809 1279 1550 1268 1196 1237 1277 1188 1058 1089 1036 905 887 912 906 970 839 960 735 923 1081 995 938 1779 1894 2036 2456 2848
1171 1164 1072 1543 2185 2155 2372 2379 2248 2249 2060 1944 1626 2078 1923 2144 1802 1482 1546 1644 1659 1379 1128 1099 1233 858 804 779 761 645 639 880 923 1050 746 796 803 1172 967 1776 2066 1924 2242
1438 1187 1525 1449 2057 2293 1912 2108 2300 1888 1660 1718 1989 1536 1568 1643 1621 1339 1278 1162 1163 1177 1086 1048 889 818 920 870 1172 821 609 596 644 650 632 643 706 798 1274 1137 1367 1179 1869
1288 1390 1537 1807 2312 1856 1925 1732 1972 1242 1809 1710 1737 1930 1815 1646 1656 1568 1307 1455 1317 1129 1074 1077 1000 988 627 652 399 176 294 421 606 616 705 684 421 568 644 823 1105 1093 988
1316 1909 1781 2206 2423 2118 2250 2229 2283 2212 1946 1995 1927 2090 1653 1615 1607 1716 1472 802 585 692 389 193 352 300 473 527 430 110 78 68 269 432 431 528 475 402 221 622 968 1219 949
1868 2006 2158 2450 2342 2477 1982 2656 2327 2002 1804 1029 717 573 222 119 494 425 420 431 604 498 331 357 331 312 314 326 272 202 67 44 62 18 137 280 610 290 285 315 361 942 947
1972 2303 2692 2398 2278 2507 2489 2223 1682 1196 20 415 307 166 91 416 210 199 250 502 331 346 353 297 376 241 269 198 182 193 12 42 56 62 84 127 156 273 491 605 339 146 98
1937 2119 2649 2329 2735 2440 441 642 76 0 0 27 8 0 0 1 204 382 491 216 233 160 152 250 77 164 130 136 98 94 149 131 40 57 36 26 9 107 265 336 234 80 16
1633 2367 2734 2876 1679 950 117 16 0 0 0 0 4 0 19 0 63 440 184 73 191 213 198 64 145 92 19 6 28 4 20 60 65 50 8 3 22 32 57 231 168 6 2

GFSSE_con_sbcape_015.txt.gz
CAPE
247 429 815 1053 850 999 912 874 942 1427 1872 2373 2622 2790 2736 2837 3053 3090 3214 2844 2708 2599 2393 2285 2039 2052 2097 2125 2019 2034 1915 1840 1428 1510 1739 1783 1229 1131 1225 1269 724 499 656
233 390 1098 1151 1017 924 1259 1410 1679 2138 2196 2493 2673 2942 2889 2844 2721 3073 2962 2655 2563 2518 2361 2249 2028 2280 2165 2025 1867 1808 1671 1651 1441 1567 1727 1594 1447 1177 1038 1036 832 853 710
381 529 1242 1675 1571 1638 1962 2095 1983 2203 2231 2756 3061 2777 2846 2562 2467 2512 2562 2481 2362 2226 2286 2307 2139 1975 1974 2002 1917 1533 1522 1462 1614 1445 1643 1281 1126 1503 1361 808 946 935 1083
980 1089 1413 1937 2235 1752 2269 2501 2564 2432 2213 2948 2893 2997 2792 2424 2473 2312 2376 2308 2159 2186 2167 2045 1974 1912 1888 1876 1866 1779 1341 1403 1520 1354 1093 1295 1009 1377 1143 605 954 710 1034
1061 1299 1711 2238 2322 1939 1954 2549 2510 2397 2204 2407 2498 2373 2396 2160 2016 2111 2041 1947 2025 2069 2083 2014 1944 1905 1852 1739 1761 1925 1894 1486 1417 988 688 816 658 1162 750 802 1068 498 289
1109 1285 2168 2214 2027 2103 2184 2398 2130 2099 2259 2604 2706 2316 2018 2020 2152 2073 1957 2069 2128 2081 2004 1944 1899 1862 1846 1820 1855 1788 1846 867 649 556 740 786 539 1052 628 436 969 653 636
1160 1528 1784 2671 2599 2518 2066 2277 2130 2095 2236 2417 2288 2003 2008 1923 2024 2008 2047 2023 1973 1955 1922 1861 1767 1688 1721 1712 1789 1835 1829 1683 329 462 521 1038 751 1028 733 756 842 1200 990
1476 1590 1707 2249 2571 2621 2081 1955 2063 1854 1882 2022 2236 2317 2246 2134 2162 2087 1966 1886 1828 1762 1754 1654 1798 1822 1716 1739 1833 1882 1858 1785 1697 893 746 741 1172 1351 1441 995 621 886 916
1638 1612 1520 1558 1815 2372 2892 1943 1964 1995 1972 2046 2444 2383 2280 2168 2057 2010 1963 1921 1799 1709 1672 1848 2051 2288 2310 2267 2146 1945 2019 2058 1332 1089 1094 741 1557 1388 1196 1151 912 1018 953
1709 1848 1791 1687 1703 1906 2218 2281 2003 1976 1776 2190 2341 2309 2262 2031 1865 1977 1866 1840 1892 1941 2015 2102 1853 2213 2331 2353 2021 2060 1814 1884 1199 954 841 614 1697 1773 1248 913 1083 1118 815
1845 1799 1778 1806 1891 2020 1995 1927 2389 2018 2188 2208 2133 2273 2519 1817 1557 1321 1299 1450 1577 1887 1759 1732 1979 2296 2228 2178 2264 1902 1862 1496 981 849 714 516 1512 1957 1348 1008 1039 883 1290
1604 1644 1703 1727 1831 1896 2202 1874 1980 1544 1897 1907 1895 1816 1863 1562 1204 625 549 1208 1539 1384 1605 2290 1951 2197 1823 1355 1211 1464 864 1559 972 759 848 91 1033 1755 1589 1020 765 697 1201
1275 1350 1462 1657 1660 1790 2034 1770 1869 1682 1619 1545 1445 1338 1449 1166 825 1141 1148 693 637 1243 1271 1415 1370 1473 1274 969 872 857 478 619 1331 1117 1237 1243 817 1890 1974 1526 957 521 537
967 1034 921 1204 1463 1574 1468 1660 1622 1637 1472 1308 1210 1117 1042 1020 982 577 762 655 710 943 894 785 647 758 972 895 885 789 706 314 174 645 873 1733 1610 1668 2142 1901 1642 1021 661
1057 1040 833 957 1227 1244 1305 1548 1447 1498 1539 1276 1170 1008 1123 1091 1083 748 733 799 733 890 607 937 808 774 780 797 853 932 949 779 579 344 775 1482 2105 1910 2417 1985 1957 1563 1079
1028 923 962 1077 1193 1022 1201 1206 1210 1279 1467 1379 1087 1177 1003 1202 1326 794 666 708 657 746 891 955 827 975 966 837 846 769 730 726 931 658 605 783 2298 1697 2122 2468 2189 1980 1435
829 891 1252 1345 1095 953 927 1045 1063 1156 923 1000 1032 1154 1127 1141 1212 1072 875 502 567 546 739 862 604 592 637 574 581 527 532 538 527 686 593 824 769 1596 1710 1717 1691 1818 2302
704 1021 1350 1647 1203 916 916 1127 1205 1302 1066 812 789 780 1001 1114 933 868 634 519 550 564 748 576 608 688 628 472 358 361 366 352 485 591 605 370 689 965 1022 1702 1574 1678 1891
734 1023 1227 1415 1262 947 1022 1229 1281 1335 1097 884 903 826 950 971 1075 1090 544 549 643 508 500 558 721 538 439 329 428 483 358 255 243 312 232 389 377 845 836 1168 1403 1422 1402
764 912 1035 1163 1094 926 1056 1334 1288 1293 1147 1088 1003 1030 1125 1050 1121 691 608 670 525 430 296 221 254 237 363 418 283 164 27 23 10 61 86 205 349 458 564 707 753 799 1754
625 788 1002 1004 1041 1124 1225 1275 1176 1413 1207 888 758 878 886 918 939 803 445 453 418 186 26 22 63 180 140 133 38 0 0 0 0 0 0 43 54 214 272 365 615 649 616
267 497 688 968 1141 1257 1127 896 870 775 633 707 771 935 1196 878 872 519 440 341 147 6 0 2 0 0 22 67 107 1 0 0 0 0 0 0 0 8 84 296 326 471 615
239 223 477 694 1114 1308 1112 879 1094 1081 866 557 189 576 793 840 992 894 201 6 0 0 0 0 0 0 0 3 12 21 0 0 0 0 0 0 0 0 0 21 427 376 260
367 360 454 810 1042 1178 1049 1128 1289 1273 685 73 22 0 0 2 0 0 0 0 0 0 0 0 0 0 0 0 0 33 9 8 0 0 0 0 0 0 0 0 0 46 310
429 691 770 1083 1129 1191 1024 1263 1219 486 10 0 0 0 0 0 0 0 0 0 0 0 0 0 0 0 0 0 0 0 0 0 0 0 0 0 0 0 0 0 0 0 0
590 823 1113 1191 1231 1187 1089 927 1044 300 0 0 0 0 0 0 0 0 0 0 0 0 0 0 0 0 0 0 0 0 0 0 0 0 1 0 0 0 0 0 0 0 0

GFSSE_con_sbcape_021.txt.gz
CAPE
215 352 491 546 561 449 478 655 850 1062 998 1106 1819 1959 1840 2274 2441 2442 2628 2503 2427 2219 1984 1969 2088 2096 2091 2017 2012 1975 1783 1605 1822 1935 1708 1537 1398 1040 912 724 631 455 1127
289 505 934 582 504 517 505 623 963 1079 1425 2017 1898 1953 2036 1975 2244 2523 2446 2422 2309 2156 1894 2031 2112 2040 1912 1829 1815 1709 1513 1616 1773 1731 1543 1371 1079 1250 1103 861 337 906 1291
302 580 796 1193 1181 1195 1057 1084 861 1124 1545 2112 2171 2324 1895 1904 2259 2368 2386 2366 2221 2190 2032 1986 1862 1847 1905 1951 1850 1505 1350 1437 1343 1425 1255 699 1015 1257 783 853 891 1114 1131
284 610 635 1194 1456 1312 1180 1161 1380 1361 1470 2290 2668 2539 2199 2149 2302 2344 2206 2063 2144 2107 1975 1945 1889 1900 1812 1797 1843 1556 1432 1380 1199 1325 1006 946 733 1234 629 1069 1051 1272 627
899 1045 1198 1394 1677 1621 1527 1349 1483 2083 1949 2260 2498 2249 2233 2250 2233 2207 1993 1936 2037 2064 2009 1892 1753 1763 1783 1838 1823 1627 1532 951 1380 1082 1489 1258 1002 849 570 1209 903 1047 843
1125 1139 1549 1442 1538 1557 1646 1627 2072 2401 2307 2509 2380 2075 2024 2010 2092 1925 1875 2002 2016 1947 1886 1780 1723 1668 1677 1680 1750 1744 1715 1046 681 1141 1325 1215 925 692 639 1227 502 522 1208
1102 1422 1488 1715 1840 2116 2040 2081 2363 1852 1846 2089 2068 1937 2028 2066 2052 1966 2040 1982 1902 1842 1782 1688 1688 1766 1701 1620 1632 1647 1668 1479 1200 1321 1484 1497 1199 860 510 1000 516 627 1208
1118 1420 1502 1691 1887 2441 1952 1739 2146 1836 1808 2033 1944 1948 1992 2105 2057 2058 1897 1814 1787 1762 1777 1790 2024 1927 2055 2006 1869 1824 1662 1585 1395 1480 1159 1616 1182 901 872 746 1050 1051 1180
1273 1422 1598 1766 2075 1985 2409 2040 2124 2199 2146 2078 2121 2197 2157 2117 2117 2018 1925 1901 1873 1839 1986 2124 2011 1690 1422 1522 1573 1533 1632 1417 1573 1689 1204 1583 1247 1022 1235 878 884 1153 848
1209 1531 1988 1989 1780 1555 1809 2044 2040 2013 2121 2232 2312 2277 2195 2082 1905 1893 2072 1781 1808 1925 1755 1847 1988 1591 1492 1495 1730 1465 1368 1352 1753 1810 1705 1363 1369 1263 1053 1198 758 915 969
1430 1562 1658 1727 1745 1849 1767 1692 1869 1952 1923 2213 2269 2233 2123 1622 1747 1875 1899 1668 1224 1568 1759 2035 2020 2011 1704 1702 2029 2021 1848 1629 1796 1735 1640 856 1274 1525 1403 1208 880 1353 1057
1181 1474 1438 1523 1493 1746 1344 1770 1836 1665 1393 1745 1932 2277 2076 1948 2026 1868 1727 1399 2031 2009 2013 2072 2036 1869 1674 1722 1748 1515 1455 1528 1836 1931 1679 1168 1375 1626 1592 1308 840 1092 1341
1041 1202 1516 1947 2096 1901 1840 2116 2068 1821 1605 1934 2273 2242 2271 1914 1865 1862 1859 1884 1913 1531 1939 1810 1835 1675 1887 1790 1637 1599 1588 1573 1377 1489 1413 1486 1332 1656 1636 1839 1197 1296 901
1015 1144 1329 1643 2133 2143 1833 1646 1734 1618 1722 1643 1631 2093 1920 1695 1820 1789 1919 1675 1962 1918 2195 1943 1807 2089 1888 1868 1868 1847 1764 1842 1604 1641 1513 1604 1885 1181 1594 1808 1544 1344 1079
1009 1126 1497 1768 1956 2265 2376 1646 1428 1695 1476 1635 1560 1539 1513 1406 1669 1705 2118 2085 1985 1967 1809 2423 2134 2074 1968 1842 1861 1760 1596 1644 1737 1567 1592 1224 1953 2327 1809 1498 1512 1725 1290
1119 1196 1463 1781 2075 2280 2181 2326 1964 1892 1729 1782 1735 1520 1768 1564 1724 1795 2106 2173 2556 1834 1876 2132 2126 2259 1941 1803 1694 1666 1574 1382 1277 1395 1389 1579 1341 1984 2224 1811 2007 1725 1485
1095 1093 1166 1439 1735 2089 1963 1953 1930 1957 2007 1805 1761 1995 2118 1779 1982 2000 2609 2338 1970 1845 2004 1904 2133 1738 1869 1645 1553 1129 947 788 660 837 962 1174 1419 1379 1705 2036 2006 2276 1622
1064 1067 1125 892 1216 1735 1843 1918 1913 1878 1889 1912 2453 2243 2368 2345 2412 2471 2269 2680 1802 1802 1641 1890 1725 1505 1384 1135 1099 920 784 675 576 619 673 800 743 1058 1421 1632 2051 2275 1972
1421 1357 1320 1315 1411 1677 1966 1995 2135 2347 2277 2048 2137 2727 2235 2258 2343 2449 2650 2767 1672 1797 2149 1517 1342 1292 867 751 488 400 508 539 564 436 749 1015 895 902 1109 1435 1582 1823 1599
1486 1594 1544 1537 1856 2127 2064 2191 2144 2329 2311 2330 2324 2333 2365 2514 2326 2520 2461 2116 1876 1792 1315 858 807 586 610 564 320 236 387 482 404 532 921 394 911 896 1343 1649 1705 1559 1295
1476 1553 1601 1763 2492 2270 1999 1973 2039 2193 2281 2402 2378 1976 2389 2243 2142 2211 1855 1774 1738 1329 844 764 464 441 278 561 347 61 143 296 311 426 518 84 93 122 512 1003 1516 1551 1537
1473 1539 1693 2094 2594 2462 2178 2103 1986 2211 2167 2300 2308 2357 2431 2384 2495 2052 2099 1705 1479 937 924 579 472 71 230 565 173 161 6 196 297 341 192 6 0 25 10 20 260 769 1156
1272 1502 1844 2434 2707 2413 2301 2157 2098 1988 1948 2016 2107 2203 2226 2272 2359 2224 1720 1481 1421 895 296 416 287 360 20 173 281 196 2 0 53 145 301 2 0 0 0 0 0 0 0
1066 1400 1971 2186 2610 2270 2392 2163 2262 2046 1956 2025 1938 1833 2282 2304 2106 1920 1585 1484 1208 469 377 338 185 162 152 4 173 235 212 169 2 0 0 0 0 0 0 0 0 0 0
881 1104 1476 2205 2500 2768 2370 2621 2249 2153 2143 2089 1479 1250 1359 1536 1871 1858 1543 1031 700 268 519 264 177 213 107 87 93 123 175 21 10 0 0 0 0 0 0 0 0 0 0
728 905 1268 2078 2630 2639 2222 2254 2473 2610 2342 1637 1183 911 812 588 385 659 568 583 597 445 238 149 127 150 144 198 97 74 0 0 0 0 2 0 0 0 0 0 0 0 0

GFSSE_con_sbcape_027.txt.gz
CAPE
234 224 351 567 671 663 598 562 627 851 1651 2123 2539 2642 2344 2289 2654 2543 2241 2097 1921 2223 2034 2001 1922 1866 1785 1756 1703 1665 1671 1934 1920 1632 1575 1144 1210 859 523 502 773 784 1595
282 399 569 705 648 776 803 715 797 967 1413 2169 2292 2227 1981 2193 2355 2319 2188 2064 1943 1992 1874 1845 1832 1805 1827 1615 1483 1423 1450 1648 1653 1462 1391 1342 1351 1026 778 814 955 1312 1470
395 450 678 850 951 1083 1131 1211 1045 1046 1047 1324 1688 1747 2050 2213 2331 2273 2180 2154 2029 1936 1858 1840 1787 1742 1695 1638 1518 1305 1404 1276 1341 1356 1175 1360 800 586 970 762 1461 1461 1341
290 380 315 1171 1064 1242 1356 1453 1491 1305 1148 1380 1647 1819 2101 2294 2215 1941 2053 2119 2044 1945 1763 1690 1712 1712 1772 1697 1583 1434 1240 1229 1193 1122 1642 566 270 951 1278 1179 1268 1212 1469
596 566 772 1196 1328 1437 1475 1645 1534 1492 1433 1547 1562 1890 2188 2253 2096 1761 1942 1988 1917 1750 1645 1630 1579 1558 1481 1504 1486 1555 1416 1212 1110 1241 1088 363 335 834 1279 1306 949 970 1050
888 829 799 1224 1454 1573 1653 1887 1814 1888 1944 1610 1701 2108 2101 2058 1781 1829 1923 1815 1732 1649 1585 1547 1606 1642 1594 1469 1468 1387 1457 1410 841 1677 1380 491 327 1175 1054 1182 1341 1200 1105
1027 1082 1070 1538 1727 1843 2004 2111 2124 2059 1936 1643 1900 1998 1957 2003 1828 1917 1702 1567 1568 1687 1820 1855 1812 1539 1661 1637 1548 1393 1532 1504 1687 2081 1616 1210 347 992 1527 318 703 1084 1372
830 1281 1467 1957 1994 1904 2046 1904 1865 1794 1783 1882 1920 1903 2036 2005 1870 1692 1464 1489 1626 1829 1983 2012 1642 1284 1288 1402 1415 1375 1471 1546 1571 2117 2126 1872 1298 736 1516 820 474 1328 951
875 1012 1302 1576 2046 1889 1890 1738 1734 1812 1926 1890 1854 1934 2055 1912 1812 1508 1538 1633 1766 1878 1838 1785 1640 1300 1256 1369 1452 1168 1312 1605 1885 2169 1681 2069 1737 1128 904 1399 1545 1203 1211
1138 1034 1318 1389 1499 2013 1531 1558 1614 1760 1800 1779 1965 2047 1961 1886 1640 1501 1588 1767 1417 1479 1656 1787 1775 1452 1287 1559 1686 1637 1678 1773 1869 1812 2168 1746 2028 1260 1513 991 1470 1203 1239
1289 1472 1323 1281 1063 1217 1186 1406 2110 2086 1950 2027 2233 2047 1702 1561 1673 2219 1668 1241 1117 2132 1783 1854 1832 1643 1608 1737 1883 2039 2616 1906 1534 2043 1690 1896 2114 1404 1388 1383 902 1222 1011
1221 1326 1246 1394 1140 1242 1112 1993 1684 1501 1466 1408 1330 1995 1377 1520 1702 1587 1470 1631 1873 2055 1916 1882 1752 1885 2331 1885 2091 2989 1850 1596 1397 1872 1939 2157 1757 1862 1515 1803 1098 1291 1039
1429 1253 1498 1399 1317 1142 2092 1280 1487 1441 1388 1368 1712 1809 1499 1624 1979 1711 1923 2672 2314 2467 2235 2094 2018 1958 2109 1851 2128 2034 1627 1795 1426 1695 1834 2304 1784 1924 1857 1943 1653 1276 1679
1111 968 881 1138 1560 1448 1432 1119 1134 1042 1026 1045 1403 1909 1895 1773 1537 2021 2398 2020 2391 2203 1837 2768 2228 2240 2412 2358 2169 2161 2083 1673 1676 1635 2210 2436 2188 2032 2092 2118 2073 1445 1420
1132 984 1000 1242 1738 1721 1895 1275 1070 994 1019 925 1087 1465 1372 1542 2617 2531 2674 1761 1715 1485 2388 1995 2424 2681 1749 2108 1913 2059 1783 2363 1872 1791 1975 2325 2398 2348 2128 2133 2121 2153 1753
1214 1162 1212 1478 1848 1940 2383 2128 1466 1364 1187 1022 1022 1002 1676 1866 2964 1970 1736 1553 2374 1606 2173 2433 2214 2140 1909 2119 2263 1619 2101 1994 1921 1451 1475 2189 2664 2681 2586 2233 2314 2164 2002
1036 1184 1322 1539 1711 2061 2030 2055 1798 1350 1065 1085 988 1426 1572 2202 2194 2183 2297 1891 2004 2897 2486 2192 2551 2873 2452 1986 1824 1589 1238 1228 768 454 485 274 1647 2819 2831 2177 2896 2728 2059
880 1101 1309 1297 1473 1954 2560 2218 1828 1453 1342 1560 1497 1980 2811 2340 2397 2208 1792 1610 2014 2708 2577 2362 2005 2455 574 269 85 18 62 71 34 47 106 217 223 196 2417 2717 2720 2647 2007
1085 1238 1356 1424 1367 1889 2761 2307 2104 2708 1750 2034 2351 1393 2287 2082 2498 2410 1996 2829 2632 2100 1877 2397 1816 1152 266 0 0 0 1 12 61 122 216 449 418 320 216 2384 2273 2358 1477
1080 1278 1595 1521 2189 2845 2468 2862 2220 2546 2358 2295 1606 1882 2580 2349 2031 3055 2395 1780 1867 1488 2203 1421 1137 362 0 20 0 0 1 22 89 175 455 299 657 608 871 1105 1439 1698 2131
1144 1378 1677 2311 3625 2561 1952 1938 2068 1903 2825 2099 2042 2296 2489 2378 2350 2823 2414 2134 1781 1638 1700 1013 413 301 0 113 3 16 6 36 71 154 302 145 313 417 624 980 1657 1550 1366
1321 1751 2573 2939 3899 3209 2480 2844 2257 2227 1429 2033 1936 1953 2719 2209 3052 1989 2434 2158 2393 1467 1308 585 208 1 0 134 0 1 23 96 109 153 138 15 0 22 219 542 1080 1033 1320
1352 1961 3044 3845 4101 3824 3707 3255 2577 2462 2047 1798 903 982 1361 1797 1418 2299 2245 1957 2193 903 741 488 41 9 0 0 58 0 41 136 31 306 279 12 0 1 1 99 2 3 91
1327 1803 3280 4001 4346 4136 4253 3153 3765 2403 1674 990 1202 882 830 1029 1054 2224 1861 1345 1544 1253 916 11 11 8 23 0 1 22 77 170 126 120 161 11 0 0 0 0 0 0 0
1155 1493 2447 4220 4512 4423 4359 3966 3003 3087 1433 1196 1045 2701 1537 2546 1231 992 1162 2080 1498 610 769 63 33 50 0 2 9 11 48 17 46 0 11 87 22 8 0 0 0 0 0
1035 1304 2031 4092 4695 4789 4629 4616 4756 4449 2956 1937 1797 1927 1288 751 1162 1325 1333 1767 2211 683 217 240 150 25 46 107 72 22 2 13 28 31 33 43 42 29 21 0 0 1 0

GFSSE_con_sbcape_030.txt.gz
CAPE
147 159 263 545 586 869 1086 961 1685 2271 2462 2643 2802 2868 3062 3043 2968 2860 2716 2769 2751 2680 2544 2137 1908 1748 1670 1651 1695 1656 2001 1856 1578 1432 1172 1242 991 404 327 598 659 1195 1796
158 234 538 658 796 745 834 956 1492 2089 2152 2679 2748 2759 2916 2800 2725 2746 2619 2566 2591 2406 1915 1873 1737 1683 1575 1518 1451 1418 1420 1529 1611 1383 1272 1161 760 641 948 1603 1604 1428 1659
255 342 568 1114 1205 909 920 1009 1533 1754 2239 2498 2620 2790 2722 2645 2671 2666 2459 2232 2229 2045 1823 1794 1746 1717 1614 1537 1357 1372 1252 1134 1190 1073 1231 1279 393 904 1019 1489 1607 1527 1606
215 337 311 1435 1352 1262 1491 1623 1704 1570 1698 2333 2548 2671 2647 2344 2226 1939 2005 1958 1887 1697 1644 1654 1639 1632 1665 1529 1431 1262 1012 1027 1155 1163 1313 1152 377 1175 1028 1362 1207 1618 1527
214 362 912 1300 1381 1627 1940 2113 2108 1881 1995 2327 2415 2161 2091 1981 1699 1904 1920 1809 1643 1558 1531 1536 1528 1456 1351 1298 1263 1400 1196 982 1032 1329 1463 500 242 1148 1301 1243 965 1109 1345
356 385 1170 1410 1424 1639 2191 2106 2054 2137 1906 2115 2109 1990 1979 1766 1639 1889 1699 1616 1497 1584 1578 1653 1611 1485 1395 1256 1212 1163 1196 1190 877 1727 1043 674 650 1185 1225 1013 1497 975 1266
609 448 930 1848 2014 2046 2376 2294 2278 2150 1640 2147 1915 1822 1859 1718 1761 1694 1468 1388 1505 1737 1823 1932 1548 1232 1330 1292 1230 1165 1320 1401 1724 1633 1708 219 1195 1622 939 1174 1040 1393 1513
851 741 918 1886 2226 2250 2387 2455 2280 1915 1630 1803 1796 1757 1837 1706 1697 1369 1259 1341 1593 1760 1771 1695 1363 1069 1025 1124 1160 1282 1484 1362 1615 1490 1607 340 1222 1855 242 326 1131 1244 1062
941 1212 1525 1512 1947 2163 2421 2040 1818 1719 1791 1816 1693 1772 1845 1680 1578 1331 1143 1433 1360 1529 1581 1542 1372 1087 1093 1203 1340 1216 1737 1846 1407 932 1638 810 1517 1432 1325 872 1009 1204 1165
834 1323 1903 2006 1761 1832 1604 1702 1695 1773 1740 1574 1616 1689 1873 1722 1566 1372 1719 1679 1275 1231 1395 1553 1619 1467 1511 1919 2066 2121 2182 2312 206 238 1407 1042 1780 1271 971 1457 1067 1377 1323
821 875 981 1662 2138 1669 1382 1298 1688 1648 1644 1591 1842 1983 2218 1427 1569 1785 2108 1604 1255 1822 1794 1762 2066 2344 2452 2562 2928 2609 1605 1575 975 613 1448 1664 1992 1833 1457 982 1313 1162 1120
864 959 857 883 1075 1565 774 1776 2083 1566 1432 1729 1995 2243 1822 1246 1824 2017 2424 2507 2005 1720 2113 2198 2540 2012 1736 1706 1490 2277 1925 1174 173 73 1302 2167 2296 1771 1791 1390 1232 1220 1075
1534 1243 1315 1437 1450 1196 1858 1934 1878 1832 1776 1927 2670 2927 3002 2622 1939 1554 2067 1908 2395 2052 1414 2036 1198 1378 2184 1962 1736 1431 1041 1079 334 18 1333 1969 2624 2029 1749 1905 1311 1273 1074
1316 1290 1285 1805 1878 1940 1665 1555 1931 1794 1900 1861 2199 2947 3172 3130 2607 3027 2859 1592 2747 2454 1678 730 1535 2294 2176 2574 2090 1997 1574 1222 576 1299 1324 2567 2627 2311 1965 2083 1971 1335 1721
1178 1237 1678 2171 2875 3435 2834 1985 1862 2317 1399 1764 2085 2535 2220 2718 1909 2288 2004 2733 2758 2280 2382 1322 1061 2837 1905 2257 2027 2069 1687 1819 1686 1486 1709 877 2626 2673 2479 2314 2399 2100 1539
1146 1070 1687 1817 2700 2943 3149 3563 3916 2941 1015 1773 1136 2274 3081 2887 1633 1927 3186 2777 1337 1752 1855 2594 2801 2787 3004 2525 2331 2172 1810 2192 1676 1411 2035 2193 2615 2676 2964 2792 2496 2504 2202
1293 1240 1670 1711 2299 2691 3101 3190 3226 2791 1290 2050 1683 2630 3196 3573 3493 3166 2937 3149 2005 1920 2926 1897 2193 1916 2363 2272 1434 2379 1761 1952 1421 668 447 403 2090 2921 2903 2858 2618 2833 2463
1270 1852 2089 1055 2046 2685 3112 3458 2359 1811 2561 1713 2242 2737 1641 3096 3003 3607 3362 2881 3012 3249 1530 1724 2320 1706 1305 618 212 649 512 265 273 163 247 573 618 863 2334 2528 2980 2614 2448
1407 2190 1769 2126 1926 2619 3077 2959 2941 2771 3135 3468 1488 2751 3140 2289 3395 2917 2713 2316 2430 2169 2300 1732 1967 1301 702 197 22 101 442 147 344 86 420 539 650 605 1267 2457 2633 2650 2056
1205 2003 2263 2172 3089 2948 2754 3288 3056 2535 2485 2752 3217 2631 2886 2923 2521 2395 2788 2592 2373 2519 2218 1732 1053 1218 439 589 19 13 71 177 625 814 186 433 698 594 1084 1476 1557 1560 1534
1267 2052 2369 2902 3377 3505 3220 2415 2520 2766 2739 2677 2513 3755 2874 2926 2761 2678 3406 2352 1950 2434 2115 1584 1427 578 491 1103 417 449 858 346 347 433 76 312 420 484 898 1656 1443 1476 1652
1482 1883 2764 2880 3996 3303 2854 2711 2145 2248 2045 2490 2444 2853 2394 2965 2838 3312 3379 2272 1986 1489 1864 1876 1090 646 133 1018 349 192 164 559 28 100 387 21 11 144 808 783 861 984 1606
1560 2143 2590 2994 3736 2946 3385 2580 3036 3573 4053 2157 2319 2112 2947 2876 3091 3065 2566 2768 2263 2181 2112 1714 1027 481 350 937 234 419 496 220 378 658 734 22 18 22 155 127 2 23 442
1513 2305 2671 3142 3347 3427 3101 3415 3232 2366 2712 2459 2575 1955 3036 2992 2649 2970 3293 2909 2203 2454 1871 1454 1106 564 490 197 791 529 303 131 527 157 352 120 4 0 0 3 0 0 0
1427 1955 2745 3230 3471 3509 3227 3631 3702 2999 1657 2730 2307 3420 3093 3251 2138 2905 2583 2789 3090 2015 1567 927 1086 675 663 479 705 570 693 447 506 54 126 49 114 26 6 0 0 0 0
1244 1809 2366 3309 3535 3685 3769 3511 3897 3118 2673 2688 3070 3088 2523 2300 2194 2855 2316 2961 2791 2010 1602 673 779 511 450 672 484 635 321 370 133 470 171 50 38 110 56 20 0 2 0

GFSSE_con_sbcape_033.txt.gz
CAPE
75 108 302 377 599 1199 1239 2078 2648 2792 2851 2961 3087 3031 2882 2779 2700 2846 2907 2789 2722 2604 1901 1815 1736 1637 1632 1664 1701 1989 1924 1548 1377 1158 1200 808 391 587 708 885 1609 1424 1276
5 149 450 790 866 1223 1674 2077 2419 2746 2667 2822 3024 3060 2710 2497 2287 2577 2780 2500 2168 2204 1809 1720 1650 1560 1548 1503 1508 1518 1750 1656 1474 1306 1098 630 357 1211 1698 1589 1622 1435 971
62 176 508 1072 1119 1013 1444 1961 2190 2422 2348 2736 2936 2996 2886 2306 2502 2770 2336 1995 1906 1778 1750 1710 1699 1570 1518 1422 1371 1319 1214 1423 1321 1140 1492 304 555 1281 1477 1794 1730 1384 830
141 238 453 1290 1462 978 1230 1905 2133 1761 1854 2571 2970 2939 2660 2079 2415 2046 1939 1876 1705 1654 1603 1563 1543 1566 1483 1461 1386 1182 1097 1063 1126 1123 1240 395 428 1430 1637 1610 1787 1218 1026
225 288 785 1378 1916 1306 1245 1689 1978 2092 1714 2058 2539 2530 2142 1762 1877 1890 1831 1655 1576 1553 1525 1506 1444 1334 1288 1286 1318 1414 1306 1193 1319 1572 942 407 599 1275 1245 1402 1627 1635 1321
237 754 1550 1559 1649 1824 1632 1733 1477 1584 1660 2216 2606 2230 1802 1619 1785 1668 1618 1489 1486 1635 1649 1704 1548 1456 1390 1283 1283 1279 1383 1532 1366 1112 210 950 706 1208 837 1368 1466 1439 1475
305 887 1216 2108 1911 2289 1857 1795 1853 1570 1506 2361 2443 1876 1784 1661 1749 1518 1385 1349 1532 1720 1844 1746 1428 1242 1384 1444 1435 1356 1414 1443 1360 1085 216 753 954 1992 1585 1543 1335 1474 1430
359 643 1070 1959 2070 2147 1900 1965 2065 1622 1609 2215 2334 2016 2228 1999 1876 1800 1263 1354 1547 1708 1654 1674 1449 1256 1283 1426 1503 1490 1360 1433 561 621 304 852 2008 943 1127 1046 1539 1547 1575
407 579 1068 1463 1815 2222 2725 2127 1976 1715 1674 1881 1996 2095 2129 1790 1587 1483 1653 1520 1430 1521 1596 1610 1790 1608 1604 1950 2260 1583 1986 1246 0 177 214 491 2417 680 405 1114 1326 892 1468
705 844 1041 1331 1595 1645 1829 2075 1720 1881 1801 1642 1613 1661 1838 1728 1637 1494 1892 1979 1336 1278 1470 1717 2335 2468 1891 1899 2178 1990 1572 379 430 0 244 841 2187 1811 1254 914 1353 1169 1371
898 1025 1078 1145 1240 1093 1098 1435 2093 1879 2010 1633 1593 1919 2010 1649 1280 1408 1788 1983 1518 1514 1835 1894 2246 2465 1917 1411 2252 2454 1879 465 170 152 528 1303 2005 1476 1453 1543 1339 1320 1492
800 1041 1118 1056 957 868 1046 1065 1165 1220 1299 1249 1448 1391 1681 1248 868 1001 1451 1755 1740 1948 1133 2558 2207 1997 1391 1003 672 1446 813 466 15 0 166 646 1745 1937 1301 1302 1439 1052 1285
486 779 1138 1272 1060 601 522 793 1115 1023 972 969 1136 1306 1143 1357 1338 1050 731 825 964 903 1281 1636 1301 884 1608 1109 1464 1413 91 0 0 89 567 1242 1774 2242 2094 1319 1141 1313 951
680 485 475 322 785 532 688 704 1116 1124 997 934 1150 1701 1593 1577 1143 1011 1104 646 1063 1548 942 654 1257 1060 1596 1716 1263 1540 475 190 0 471 596 1914 2455 2107 2409 1930 1298 1289 1095
708 767 708 531 788 1084 1082 702 1012 1193 1234 1050 1466 1378 1007 1023 734 1510 1263 1585 979 1645 1110 307 615 1083 1484 1456 1095 1297 916 526 415 836 591 2216 2457 2272 2368 2438 2275 1542 1641
780 703 1012 751 1171 884 1441 1599 2099 1372 437 1204 1335 1342 1216 1093 995 1427 1619 1787 1118 918 1252 1276 1305 1335 1722 1251 1447 1439 1024 1054 745 1204 997 1494 2196 2218 2310 2401 2616 2480 1851
370 526 1100 1117 1521 1476 1418 1798 1404 1476 755 848 712 1633 1395 1397 1148 1292 1281 1329 1618 1397 1396 1020 1127 1223 1214 945 85 1352 1145 733 854 1335 1450 1288 1693 2493 2263 2913 2743 2795 2811
424 952 1074 1125 993 1053 1349 1943 1219 978 765 854 1223 1170 1753 1932 1589 1260 1514 1412 1781 1230 585 848 1015 411 199 0 0 0 67 0 0 7 1 11 920 1445 2279 2297 2103 2473 2320
379 840 695 901 997 1038 1552 2084 1407 1255 1572 1390 1258 1343 1007 1964 1899 1890 1716 1487 1633 1386 1290 1014 818 325 0 0 0 0 0 0 0 13 25 27 235 885 1118 1806 1594 2014 1714
515 896 896 891 1263 1282 1800 1640 1704 1423 1663 1854 893 852 2043 1474 2092 1485 1677 1812 1199 1181 729 511 445 242 0 0 0 0 0 0 0 43 50 82 272 480 872 1374 1007 1143 1804
842 1037 811 1169 1632 1467 1646 1748 1830 1710 1489 1518 1657 1736 1648 1491 1333 1495 1654 1681 1523 1110 639 581 11 0 0 6 0 0 0 0 0 45 14 4 15 352 783 785 727 1242 1157
700 1133 874 1174 2114 1503 1660 1556 1273 1428 1342 1307 1278 1964 1553 1677 1615 1478 1520 1376 924 882 676 37 0 0 0 3 0 0 0 8 12 22 0 0 0 134 120 25 199 579 767
567 1109 1170 1483 2065 1802 1873 1588 1365 1595 1497 1601 1811 1828 1670 1623 1849 1884 1875 1130 1116 807 533 27 0 0 0 0 0 0 0 4 39 110 2 0 0 0 0 0 0 17 617
701 1156 1230 1644 2143 1721 1714 1400 1326 1106 1538 1387 1549 1571 1411 1789 1799 1640 1455 920 1124 751 300 1 0 1 0 0 0 0 0 0 6 5 8 0 0 0 0 0 0 0 67
740 1030 1571 1467 2336 1490 1635 1750 1028 1246 1237 1130 711 1431 1680 1550 1642 1448 1658 1265 986 771 212 2 0 18 21 33 18 48 0 0 0 0 1 5 19 0 0 0 0 0 0
807 1231 1622 1569 1805 1908 1249 1557 2037 1780 924 536 1475 1301 1388 708 1208 1548 1359 1310 870 79 7 19 40 0 41 26 2 0 0 0 0 0 0 0 0 0 6 0 0 0 0